Location: Be?chatów
(51.3665°N, 19.3745°E)
Time: 22:54:46
(UTC+00:00)

Terra - Pass Details

Date: 19 May 2025
Orbit: 690 x 692 km, 98.0° (Epoch: 16 June)

Event Time Altitude Azimuth Distance (km) Brightness Sun altitude
Exits shadow 19:11:28 - 159° (SSE) 2,712 4.3 -5.5°
Reaches altitude 10° 19:12:52 10° 158° (SSE) 2,140 3.8 -5.6°
Maximum altitude 19:17:32 77° 74° (ENE) 716 1.8 -6.2°
Drops below altitude 10° 19:22:16 10° 348° (NNW) 2,156 5.3 -6.7°
Sets 19:24:31 0° 347° (NNW) 3,077 6.2 -7.0°
